QPF
0.19 0.22 0.25 0.32 0.37 0.41 0.37 0.28 0.25 0.21 0.20 0.18 0.13 0.09 0.07 0.07 0.06 0.06 0.06 0.06 0.06 0.06 0.04 0.03 0.02 0.02 0.02 0.03 0.02 0.01 0.00 0.00 0.00 0.00 0.00 0.00 0.00 0.00 0.00 0.00 0.00 0.00 0.00
0.19 0.22 0.27 0.31 0.35 0.42 0.43 0.34 0.29 0.27 0.22 0.19 0.19 0.20 0.16 0.13 0.11 0.09 0.09 0.10 0.10 0.10 0.08 0.06 0.05 0.04 0.03 0.02 0.01 0.01 0.00 0.00 0.00 0.00 0.00 0.00 0.00 0.00 0.00 0.00 0.00 0.00 0.00
0.14 0.19 0.23 0.31 0.31 0.38 0.45 0.43 0.37 0.32 0.27 0.23 0.25 0.27 0.25 0.22 0.18 0.15 0.15 0.15 0.14 0.13 0.11 0.10 0.08 0.05 0.03 0.02 0.01 0.01 0.01 0.01 0.00 0.00 0.01 0.01 0.00 0.00 0.00 0.00 0.00 0.00 0.00
0.09 0.13 0.15 0.26 0.31 0.32 0.40 0.46 0.47 0.41 0.36 0.31 0.28 0.29 0.29 0.25 0.23 0.24 0.22 0.19 0.16 0.14 0.13 0.12 0.10 0.07 0.05 0.03 0.02 0.02 0.01 0.01 0.01 0.01 0.01 0.01 0.01 0.01 0.00 0.00 0.00 0.00 0.00
0.07 0.11 0.10 0.13 0.21 0.28 0.36 0.41 0.46 0.45 0.37 0.37 0.34 0.34 0.32 0.30 0.28 0.26 0.22 0.18 0.16 0.14 0.15 0.14 0.13 0.10 0.08 0.06 0.04 0.03 0.02 0.02 0.03 0.02 0.02 0.01 0.00 0.01 0.01 0.00 0.00 0.00 0.00
0.05 0.08 0.07 0.08 0.13 0.17 0.28 0.36 0.40 0.42 0.39 0.36 0.39 0.42 0.36 0.31 0.28 0.24 0.21 0.18 0.16 0.13 0.12 0.12 0.12 0.12 0.10 0.08 0.06 0.05 0.04 0.03 0.02 0.02 0.01 0.01 0.00 0.00 0.00 0.00 0.00 0.00 0.00
0.03 0.05 0.05 0.06 0.09 0.12 0.16 0.21 0.27 0.31 0.33 0.32 0.33 0.37 0.36 0.31 0.28 0.24 0.21 0.18 0.17 0.16 0.15 0.12 0.11 0.11 0.10 0.09 0.08 0.07 0.06 0.05 0.03 0.03 0.02 0.01 0.00 0.00 0.00 0.00 0.00 0.00 0.00
0.02 0.02 0.02 0.03 0.06 0.09 0.10 0.10 0.13 0.17 0.19 0.20 0.22 0.23 0.26 0.27 0.26 0.24 0.22 0.20 0.17 0.14 0.13 0.11 0.10 0.10 0.09 0.08 0.07 0.06 0.05 0.04 0.03 0.03 0.02 0.01 0.01 0.00 0.00 0.00 0.00 0.00 0.00
0.02 0.02 0.02 0.02 0.02 0.03 0.04 0.05 0.06 0.08 0.11 0.14 0.15 0.17 0.18 0.20 0.21 0.21 0.22 0.23 0.20 0.16 0.15 0.13 0.11 0.09 0.08 0.06 0.05 0.04 0.03 0.03 0.02 0.02 0.02 0.01 0.01 0.00 0.00 0.00 0.00 0.00 0.00
0.03 0.02 0.02 0.02 0.01 0.01 0.01 0.01 0.03 0.04 0.05 0.06 0.09 0.11 0.12 0.13 0.15 0.15 0.14 0.15 0.16 0.16 0.14 0.12 0.10 0.09 0.07 0.06 0.05 0.04 0.03 0.02 0.02 0.01 0.01 0.01 0.00 0.00 0.00 0.00 0.00 0.00 0.00
0.01 0.02 0.02 0.02 0.02 0.01 0.01 0.00 0.01 0.01 0.02 0.03 0.04 0.06 0.07 0.08 0.09 0.10 0.11 0.10 0.09 0.08 0.08 0.07 0.06 0.06 0.05 0.04 0.04 0.03 0.03 0.03 0.02 0.01 0.01 0.01 0.00 0.00 0.00 0.00 0.00 0.00 0.00
0.00 0.01 0.00 0.01 0.01 0.01 0.01 0.00 0.00 0.01 0.01 0.02 0.02 0.03 0.04 0.06 0.07 0.08 0.09 0.08 0.07 0.05 0.04 0.04 0.04 0.04 0.04 0.03 0.02 0.02 0.02 0.02 0.02 0.02 0.01 0.00 0.00 0.00 0.00 0.00 0.00 0.00 0.00
0.00 0.00 0.00 0.01 0.00 0.00 0.00 0.00 0.00 0.01 0.01 0.01 0.01 0.02 0.03 0.03 0.05 0.05 0.05 0.06 0.05 0.04 0.03 0.03 0.02 0.02 0.02 0.02 0.02 0.02 0.02 0.02 0.02 0.02 0.01 0.01 0.00 0.00 0.00 0.00 0.00 0.00 0.00
0.00 0.00 0.00 0.00 0.00 0.00 0.00 0.00 0.00 0.00 0.00 0.00 0.01 0.01 0.01 0.02 0.03 0.03 0.03 0.04 0.04 0.03 0.02 0.02 0.01 0.01 0.01 0.01 0.01 0.02 0.02 0.02 0.02 0.02 0.01 0.01 0.01 0.01 0.00 0.00 0.00 0.00 0.00
0.00 0.00 0.00 0.00 0.00 0.00 0.00 0.00 0.00 0.00 0.00 0.00 0.00 0.00 0.00 0.00 0.01 0.01 0.01 0.01 0.01 0.01 0.01 0.01 0.01 0.01 0.01 0.01 0.01 0.01 0.01 0.01 0.01 0.01 0.01 0.01 0.01 0.01 0.00 0.00 0.00 0.00 0.00
0.00 0.00 0.00 0.00 0.00 0.00 0.00 0.00 0.00 0.00 0.00 0.00 0.00 0.00 0.00 0.00 0.00 0.01 0.01 0.01 0.01 0.01 0.01 0.01 0.01 0.01 0.00 0.00 0.00 0.00 0.00 0.00 0.00 0.00 0.00 0.00 0.00 0.00 0.00 0.00 0.00 0.00 0.00
0.00 0.00 0.00 0.00 0.00 0.00 0.00 0.00 0.00 0.00 0.00 0.00 0.00 0.00 0.00 0.00 0.00 0.00 0.01 0.00 0.00 0.00 0.00 0.00 0.00 0.00 0.00 0.00 0.00 0.00 0.00 0.00 0.00 0.00 0.00 0.00 0.00 0.00 0.00 0.00 0.00 0.00 0.00
0.00 0.00 0.00 0.00 0.00 0.00 0.00 0.00 0.00 0.00 0.00 0.00 0.00 0.00 0.00 0.00 0.00 0.00 0.01 0.01 0.01 0.01 0.01 0.01 0.00 0.00 0.00 0.00 0.00 0.00 0.00 0.00 0.00 0.00 0.00 0.00 0.00 0.00 0.00 0.00 0.00 0.00 0.00
0.00 0.00 0.00 0.00 0.00 0.00 0.00 0.00 0.00 0.00 0.00 0.00 0.00 0.00 0.00 0.00 0.00 0.00 0.00 0.00 0.01 0.01 0.01 0.01 0.01 0.01 0.01 0.00 0.00 0.00 0.00 0.00 0.00 0.00 0.00 0.00 0.00 0.00 0.00 0.00 0.00 0.00 0.00
0.00 0.00 0.00 0.00 0.00 0.00 0.00 0.00 0.00 0.00 0.00 0.00 0.01 0.00 0.00 0.00 0.00 0.00 0.00 0.00 0.00 0.01 0.01 0.01 0.01 0.01 0.01 0.01 0.00 0.00 0.00 0.00 0.00 0.00 0.00 0.00 0.00 0.00 0.00 0.00 0.00 0.00 0.00
0.00 0.00 0.00 0.00 0.00 0.00 0.00 0.00 0.00 0.00 0.00 0.00 0.00 0.00 0.00 0.01 0.01 0.01 0.01 0.01 0.01 0.01 0.01 0.01 0.01 0.01 0.01 0.01 0.01 0.00 0.00 0.00 0.00 0.00 0.00 0.00 0.00 0.00 0.00 0.00 0.00 0.00 0.00
0.00 0.00 0.00 0.00 0.00 0.00 0.01 0.01 0.01 0.01 0.01 0.00 0.01 0.01 0.01 0.01 0.01 0.01 0.01 0.01 0.01 0.01 0.01 0.02 0.02 0.02 0.02 0.02 0.01 0.01 0.01 0.00 0.00 0.00 0.00 0.00 0.00 0.00 0.00 0.00 0.00 0.00 0.00
0.00 0.00 0.00 0.00 0.00 0.00 0.01 0.02 0.02 0.03 0.03 0.02 0.01 0.01 0.01 0.01 0.01 0.02 0.01 0.01 0.01 0.01 0.02 0.02 0.02 0.02 0.02 0.02 0.03 0.02 0.01 0.01 0.01 0.00 0.00 0.00 0.00 0.00 0.00 0.00 0.00 0.00 0.00
0.00 0.00 0.00 0.00 0.00 0.00 0.01 0.01 0.01 0.02 0.02 0.03 0.03 0.03 0.03 0.03 0.02 0.02 0.02 0.02 0.01 0.02 0.02 0.03 0.03 0.03 0.03 0.03 0.03 0.03 0.02 0.02 0.01 0.01 0.01 0.01 0.01 0.00 0.00 0.00 0.00 0.00 0.00
0.00 0.00 0.00 0.00 0.00 0.00 0.00 0.01 0.01 0.01 0.01 0.02 0.03 0.04 0.04 0.04 0.04 0.03 0.03 0.03 0.04 0.05 0.05 0.04 0.04 0.04 0.05 0.05 0.05 0.04 0.02 0.02 0.02 0.02 0.02 0.01 0.01 0.00 0.00 0.00 0.00 0.00 0.00
0.00 0.00 0.00 0.00 0.00 0.00 0.00 0.00 0.01 0.01 0.01 0.02 0.03 0.05 0.06 0.06 0.06 0.06 0.05 0.05 0.05 0.07 0.07 0.06 0.05 0.04 0.04 0.04 0.05 0.04 0.03 0.02 0.02 0.02 0.01 0.01 0.01 0.00 0.00 0.00 0.00 0.00 0.00
MSLP
1007.95 1008.48 1009.06 1009.62 1010.14 1010.63 1011.10 1011.58 1012.10 1012.69 1013.33 1013.99 1014.63 1015.19 1015.65 1015.97 1016.16 1016.27 1016.32 1016.39 1016.50 1016.69 1016.96 1017.29 1017.65 1017.98 1018.25 1018.44 1018.54 1018.56 1018.52 1018.47 1018.43 1018.42 1018.43 1018.47 1018.51 1018.54 1018.53 1018.49 1018.43 1018.37 1018.32
1008.38 1008.90 1009.44 1009.96 1010.44 1010.88 1011.31 1011.75 1012.24 1012.79 1013.38 1013.99 1014.58 1015.09 1015.51 1015.80 1015.98 1016.08 1016.16 1016.25 1016.40 1016.63 1016.92 1017.27 1017.63 1017.95 1018.21 1018.38 1018.46 1018.48 1018.45 1018.41 1018.40 1018.42 1018.47 1018.54 1018.61 1018.66 1018.68 1018.66 1018.62 1018.57 1018.54
1008.95 1009.44 1009.94 1010.41 1010.84 1011.23 1011.61 1012.00 1012.44 1012.92 1013.44 1013.97 1014.47 1014.91 1015.26 1015.51 1015.68 1015.80 1015.91 1016.05 1016.25 1016.52 1016.86 1017.23 1017.60 1017.92 1018.17 1018.33 1018.41 1018.42 1018.40 1018.39 1018.39 1018.44 1018.52 1018.61 1018.71 1018.78 1018.81 1018.81 1018.78 1018.75 1018.74
1009.59 1010.04 1010.49 1010.90 1011.28 1011.62 1011.95 1012.30 1012.67 1013.08 1013.51 1013.94 1014.34 1014.68 1014.95 1015.16 1015.31 1015.43 1015.58 1015.78 1016.04 1016.38 1016.77 1017.18 1017.57 1017.90 1018.15 1018.30 1018.38 1018.40 1018.40 1018.40 1018.43 1018.50 1018.59 1018.71 1018.81 1018.89 1018.93 1018.93 1018.91 1018.90 1018.91
1010.23 1010.62 1011.01 1011.37 1011.70 1012.01 1012.30 1012.61 1012.92 1013.26 1013.60 1013.92 1014.21 1014.45 1014.63 1014.77 1014.90 1015.04 1015.22 1015.48 1015.81 1016.21 1016.65 1017.11 1017.52 1017.87 1018.13 1018.30 1018.39 1018.42 1018.44 1018.46 1018.51 1018.59 1018.70 1018.81 1018.92 1018.99 1019.03 1019.04 1019.03 1019.02 1019.05
1010.81 1011.13 1011.45 1011.76 1012.06 1012.34 1012.62 1012.90 1013.18 1013.45 1013.70 1013.92 1014.10 1014.24 1014.33 1014.42 1014.51 1014.66 1014.87 1015.18 1015.57 1016.03 1016.53 1017.03 1017.48 1017.85 1018.13 1018.31 1018.42 1018.47 1018.50 1018.54 1018.61 1018.70 1018.81 1018.93 1019.03 1019.10 1019.13 1019.14 1019.13 1019.14 1019.18
1011.32 1011.56 1011.81 1012.08 1012.35 1012.63 1012.91 1013.18 1013.43 1013.66 1013.84 1013.97 1014.05 1014.09 1014.10 1014.13 1014.20 1014.34 1014.58 1014.93 1015.37 1015.88 1016.42 1016.95 1017.43 1017.82 1018.12 1018.32 1018.44 1018.52 1018.57 1018.63 1018.71 1018.81 1018.92 1019.04 1019.14 1019.20 1019.24 1019.25 1019.25 1019.28 1019.33
1011.74 1011.91 1012.10 1012.33 1012.59 1012.87 1013.16 1013.44 1013.69 1013.88 1014.01 1014.07 1014.06 1014.02 1013.97 1013.94 1013.98 1014.12 1014.38 1014.75 1015.23 1015.77 1016.34 1016.89 1017.38 1017.78 1018.08 1018.29 1018.43 1018.52 1018.60 1018.67 1018.77 1018.88 1019.01 1019.13 1019.23 1019.30 1019.35 1019.37 1019.40 1019.44 1019.51
1012.12 1012.22 1012.37 1012.57 1012.83 1013.12 1013.42 1013.71 1013.95 1014.12 1014.21 1014.21 1014.15 1014.04 1013.93 1013.86 1013.88 1014.02 1014.28 1014.67 1015.16 1015.72 1016.30 1016.85 1017.33 1017.72 1018.02 1018.23 1018.38 1018.48 1018.57 1018.66 1018.78 1018.91 1019.05 1019.19 1019.30 1019.40 1019.46 1019.51 1019.56 1019.62 1019.72
1012.50 1012.56 1012.67 1012.85 1013.10 1013.39 1013.71 1014.00 1014.23 1014.39 1014.44 1014.40 1014.28 1014.13 1013.98 1013.89 1013.90 1014.03 1014.30 1014.70 1015.19 1015.74 1016.30 1016.83 1017.29 1017.66 1017.94 1018.13 1018.27 1018.38 1018.48 1018.60 1018.73 1018.89 1019.05 1019.21 1019.36 1019.48 1019.58 1019.66 1019.74 1019.82 1019.94
1012.92 1012.95 1013.04 1013.21 1013.45 1013.74 1014.05 1014.33 1014.54 1014.67 1014.69 1014.61 1014.46 1014.28 1014.11 1014.01 1014.02 1014.16 1014.43 1014.82 1015.30 1015.83 1016.37 1016.85 1017.27 1017.60 1017.85 1018.02 1018.15 1018.25 1018.36 1018.49 1018.65 1018.83 1019.03 1019.22 1019.41 1019.57 1019.70 1019.81 1019.92 1020.02 1020.15
1013.39 1013.41 1013.49 1013.65 1013.88 1014.15 1014.43 1014.69 1014.87 1014.95 1014.93 1014.82 1014.65 1014.45 1014.28 1014.19 1014.21 1014.35 1014.63 1015.02 1015.49 1015.99 1016.48 1016.92 1017.29 1017.57 1017.78 1017.92 1018.03 1018.13 1018.24 1018.39 1018.57 1018.78 1019.00 1019.23 1019.45 1019.65 1019.82 1019.96 1020.08 1020.20 1020.33
1013.91 1013.94 1014.02 1014.17 1014.37 1014.61 1014.85 1015.05 1015.18 1015.21 1015.15 1015.01 1014.82 1014.62 1014.46 1014.38 1014.42 1014.59 1014.87 1015.26 1015.70 1016.17 1016.62 1017.01 1017.33 1017.57 1017.73 1017.85 1017.94 1018.04 1018.16 1018.32 1018.52 1018.75 1019.00 1019.26 1019.51 1019.73 1019.92 1020.09 1020.22 1020.34 1020.46
1014.43 1014.49 1014.58 1014.72 1014.89 1015.08 1015.26 1015.39 1015.45 1015.43 1015.32 1015.14 1014.94 1014.75 1014.61 1014.56 1014.62 1014.81 1015.11 1015.49 1015.92 1016.35 1016.76 1017.11 1017.38 1017.58 1017.72 1017.81 1017.90 1017.99 1018.12 1018.29 1018.50 1018.75 1019.03 1019.30 1019.57 1019.81 1020.02 1020.18 1020.32 1020.43 1020.53
1014.94 1015.02 1015.12 1015.24 1015.38 1015.51 1015.62 1015.68 1015.66 1015.57 1015.41 1015.21 1015.00 1014.82 1014.70 1014.68 1014.78 1014.99 1015.29 1015.67 1016.08 1016.49 1016.86 1017.17 1017.40 1017.57 1017.69 1017.78 1017.86 1017.97 1018.10 1018.29 1018.51 1018.77 1019.06 1019.34 1019.62 1019.86 1020.07 1020.24 1020.37 1020.47 1020.54
1015.39 1015.50 1015.60 1015.71 1015.80 1015.87 1015.90 1015.88 1015.79 1015.64 1015.44 1015.22 1015.00 1014.83 1014.74 1014.74 1014.86 1015.08 1015.39 1015.75 1016.14 1016.52 1016.86 1017.13 1017.35 1017.50 1017.62 1017.71 1017.80 1017.92 1018.07 1018.26 1018.50 1018.77 1019.06 1019.35 1019.62 1019.86 1020.07 1020.23 1020.35 1020.44 1020.50
1015.76 1015.90 1016.00 1016.08 1016.13 1016.14 1016.10 1016.01 1015.85 1015.64 1015.41 1015.16 1014.95 1014.79 1014.71 1014.73 1014.85 1015.07 1015.37 1015.71 1016.07 1016.41 1016.72 1016.97 1017.17 1017.32 1017.44 1017.54 1017.66 1017.79 1017.96 1018.17 1018.42 1018.69 1018.98 1019.27 1019.54 1019.78 1019.99 1020.15 1020.27 1020.35 1020.41
1016.08 1016.22 1016.32 1016.38 1016.38 1016.34 1016.23 1016.07 1015.86 1015.61 1015.34 1015.08 1014.86 1014.70 1014.63 1014.65 1014.76 1014.96 1015.22 1015.52 1015.83 1016.14 1016.40 1016.63 1016.82 1016.98 1017.11 1017.24 1017.38 1017.54 1017.73 1017.96 1018.22 1018.50 1018.79 1019.07 1019.35 1019.59 1019.80 1019.98 1020.11 1020.21 1020.29
1016.35 1016.50 1016.59 1016.62 1016.58 1016.49 1016.33 1016.12 1015.86 1015.58 1015.29 1015.01 1014.78 1014.61 1014.52 1014.52 1014.60 1014.75 1014.96 1015.20 1015.45 1015.70 1015.93 1016.13 1016.31 1016.47 1016.62 1016.78 1016.95 1017.14 1017.36 1017.61 1017.88 1018.17 1018.46 1018.76 1019.04 1019.29 1019.53 1019.72 1019.89 1020.03 1020.14
1016.62 1016.77 1016.84 1016.84 1016.77 1016.64 1016.44 1016.19 1015.90 1015.59 1015.27 1014.98 1014.73 1014.54 1014.42 1014.37 1014.39 1014.48 1014.61 1014.77 1014.95 1015.13 1015.32 1015.49 1015.66 1015.83 1016.00 1016.18 1016.39 1016.61 1016.86 1017.13 1017.42 1017.72 1018.03 1018.33 1018.63 1018.91 1019.17 1019.41 1019.62 1019.80 1019.97
1016.92 1017.05 1017.10 1017.07 1016.97 1016.81 1016.58 1016.30 1015.98 1015.65 1015.32 1015.01 1014.73 1014.50 1014.33 1014.22 1014.17 1014.16 1014.20 1014.27 1014.37 1014.48 1014.61 1014.75 1014.91 1015.09 1015.28 1015.50 1015.74 1015.99 1016.27 1016.57 1016.87 1017.19 1017.51 1017.84 1018.16 1018.47 1018.77 1019.05 1019.31 1019.55 1019.77
1017.23 1017.34 1017.36 1017.31 1017.19 1016.99 1016.74 1016.44 1016.11 1015.77 1015.42 1015.08 1014.77 1014.50 1014.27 1014.08 1013.94 1013.83 1013.77 1013.74 1013.75 1013.80 1013.87 1013.98 1014.13 1014.31 1014.53 1014.77 1015.04 1015.33 1015.64 1015.96 1016.29 1016.62 1016.97 1017.31 1017.65 1018.00 1018.33 1018.66 1018.97 1019.27 1019.54
1017.53 1017.61 1017.61 1017.54 1017.39 1017.18 1016.91 1016.60 1016.26 1015.90 1015.54 1015.19 1014.84 1014.52 1014.22 1013.95 1013.72 1013.51 1013.35 1013.22 1013.15 1013.12 1013.14 1013.23 1013.36 1013.55 1013.78 1014.06 1014.36 1014.68 1015.01 1015.36 1015.70 1016.06 1016.41 1016.78 1017.14 1017.51 1017.88 1018.25 1018.60 1018.94 1019.26
1017.78 1017.82 1017.79 1017.69 1017.53 1017.30 1017.03 1016.72 1016.38 1016.02 1015.65 1015.27 1014.90 1014.53 1014.17 1013.83 1013.50 1013.20 1012.94 1012.73 1012.57 1012.48 1012.45 1012.51 1012.63 1012.82 1013.07 1013.37 1013.69 1014.04 1014.40 1014.76 1015.12 1015.49 1015.86 1016.24 1016.62 1017.01 1017.40 1017.79 1018.17 1018.54 1018.88
1017.91 1017.92 1017.85 1017.72 1017.54 1017.31 1017.04 1016.73 1016.41 1016.05 1015.69 1015.31 1014.91 1014.51 1014.10 1013.69 1013.29 1012.91 1012.57 1012.27 1012.04 1011.88 1011.82 1011.84 1011.95 1012.13 1012.39 1012.69 1013.04 1013.40 1013.77 1014.15 1014.53 1014.90 1015.28 1015.67 1016.06 1016.46 1016.86 1017.27 1017.66 1018.04 1018.40
1017.88 1017.84 1017.74 1017.58 1017.39 1017.16 1016.90 1016.61 1016.30 1015.97 1015.62 1015.25 1014.85 1014.43 1014.00 1013.54 1013.08 1012.64 1012.22 1011.85 1011.56 1011.34 1011.22 1011.21 1011.29 1011.46 1011.71 1012.01 1012.36 1012.72 1013.11 1013.49 1013.87 1014.25 1014.64 1015.02 1015.42 1015.82 1016.23 1016.64 1017.04 1017.43 1017.80
Thickness
5607 5613 5619 5625 5630 5635 5639 5643 5647 5648 5649 5651 5652 5651 5652 5654 5656 5657 5658 5658 5658 5658 5657 5657 5657 5657 5657 5657 5656 5655 5654 5653 5654 5653 5654 5655 5654 5652 5650 5648 5646 5644 5641
5604 5610 5615 5620 5625 5632 5635 5639 5642 5644 5646 5649 5650 5650 5649 5649 5651 5651 5651 5652 5652 5652 5652 5652 5651 5650 5649 5649 5649 5648 5647 5647 5646 5646 5646 5646 5647 5644 5641 5639 5636 5634 5632
5603 5609 5613 5618 5624 5627 5631 5635 5639 5642 5643 5644 5644 5643 5642 5642 5643 5644 5645 5646 5646 5646 5646 5646 5645 5643 5643 5643 5642 5641 5641 5640 5639 5639 5639 5638 5639 5639 5635 5630 5627 5625 5622
5602 5607 5611 5615 5620 5624 5627 5631 5635 5637 5639 5640 5640 5640 5639 5639 5641 5641 5640 5640 5640 5640 5640 5639 5639 5637 5636 5635 5635 5634 5634 5633 5632 5631 5630 5631 5631 5627 5628 5624 5620 5616 5613
5599 5605 5609 5613 5617 5620 5623 5626 5628 5631 5633 5634 5636 5636 5636 5636 5636 5635 5634 5633 5633 5633 5633 5633 5632 5631 5629 5628 5628 5627 5626 5626 5626 5625 5623 5621 5619 5619 5617 5618 5614 5609 5604
5596 5601 5604 5608 5612 5614 5617 5620 5623 5625 5627 5629 5630 5631 5631 5630 5629 5628 5627 5627 5626 5625 5626 5626 5626 5624 5622 5621 5620 5619 5618 5617 5617 5616 5615 5614 5612 5611 5609 5607 5606 5602 5597
5593 5596 5599 5602 5606 5609 5613 5615 5617 5619 5621 5622 5623 5625 5625 5625 5625 5624 5622 5621 5620 5619 5619 5619 5618 5616 5614 5613 5612 5610 5609 5608 5607 5606 5605 5604 5602 5600 5598 5595 5595 5592 5588
5589 5591 5594 5597 5600 5603 5606 5609 5611 5613 5613 5615 5616 5618 5619 5619 5619 5619 5617 5616 5615 5615 5613 5611 5609 5607 5606 5604 5603 5602 5600 5599 5597 5595 5594 5592 5590 5587 5585 5583 5582 5581 5580
5582 5585 5588 5591 5594 5596 5599 5602 5604 5605 5607 5608 5610 5611 5612 5613 5612 5611 5609 5609 5608 5606 5605 5602 5600 5599 5597 5596 5594 5592 5591 5590 5588 5585 5583 5581 5578 5575 5572 5571 5569 5569 5571
5576 5578 5581 5584 5586 5589 5591 5594 5596 5598 5599 5601 5602 5603 5604 5604 5603 5602 5601 5600 5599 5597 5595 5593 5592 5589 5588 5586 5584 5582 5581 5579 5577 5574 5573 5570 5567 5564 5561 5558 5557 5555 5555
5568 5570 5573 5575 5578 5580 5583 5585 5587 5588 5589 5590 5592 5593 5594 5593 5593 5593 5592 5591 5589 5588 5586 5584 5582 5580 5578 5576 5574 5572 5570 5569 5567 5564 5562 5559 5555 5554 5550 5547 5545 5543 5541
5559 5562 5564 5567 5569 5571 5573 5575 5576 5578 5578 5579 5580 5581 5581 5581 5581 5582 5581 5580 5579 5578 5576 5574 5572 5570 5568 5566 5564 5562 5559 5558 5556 5553 5551 5548 5544 5542 5539 5537 5534 5532 5529
5554 5556 5557 5558 5559 5561 5563 5564 5565 5565 5566 5567 5568 5569 5569 5570 5570 5570 5569 5568 5567 5566 5564 5563 5561 5560 5557 5555 5554 5551 5549 5547 5545 5542 5540 5537 5534 5531 5528 5525 5523 5520 5517
5548 5550 5550 5550 5550 5551 5552 5552 5553 5553 5554 5555 5556 5557 5558 5558 5558 5557 5557 5556 5555 5555 5553 5551 5549 5547 5545 5544 5541 5539 5537 5535 5532 5530 5528 5525 5523 5520 5516 5514 5512 5509 5507
5539 5540 5541 5541 5542 5542 5542 5541 5542 5542 5542 5544 5545 5545 5545 5545 5545 5545 5544 5543 5543 5542 5541 5539 5537 5535 5534 5532 5529 5527 5525 5523 5520 5517 5515 5513 5510 5507 5505 5503 5501 5498 5497
5529 5529 5529 5530 5531 5531 5530 5530 5530 5530 5531 5532 5532 5532 5532 5532 5532 5532 5531 5530 5530 5529 5528 5527 5525 5523 5522 5520 5517 5516 5514 5511 5509 5506 5503 5501 5498 5495 5492 5490 5488 5486 5486
5519 5518 5518 5518 5518 5518 5517 5518 5518 5518 5519 5520 5520 5519 5520 5520 5520 5518 5518 5518 5517 5516 5516 5515 5514 5512 5511 5508 5505 5503 5502 5500 5498 5495 5493 5491 5488 5484 5482 5479 5476 5475 5472
5511 5509 5507 5506 5506 5505 5505 5505 5505 5506 5506 5506 5507 5507 5507 5507 5507 5506 5505 5505 5504 5504 5504 5503 5502 5501 5499 5497 5494 5492 5489 5488 5487 5485 5483 5481 5478 5475 5472 5470 5467 5465 5463
5499 5498 5496 5495 5495 5494 5493 5493 5494 5493 5494 5494 5494 5494 5494 5495 5495 5494 5494 5493 5492 5492 5491 5491 5490 5489 5488 5486 5484 5481 5479 5478 5476 5474 5472 5470 5468 5465 5462 5459 5457 5455 5452
5489 5487 5486 5485 5484 5482 5481 5481 5481 5481 5481 5480 5480 5480 5481 5482 5483 5483 5482 5480 5479 5479 5479 5478 5478 5478 5478 5476 5474 5471 5470 5469 5467 5464 5461 5459 5458 5456 5453 5450 5448 5446 5444
5479 5477 5476 5474 5472 5470 5469 5469 5468 5467 5466 5466 5466 5467 5468 5469 5470 5470 5469 5468 5467 5467 5467 5467 5467 5467 5467 5466 5464 5462 5461 5460 5458 5455 5453 5451 5449 5447 5444 5441 5439 5437 5434
5470 5467 5465 5463 5460 5458 5456 5456 5454 5452 5452 5452 5453 5455 5456 5456 5456 5456 5456 5456 5456 5456 5456 5456 5456 5456 5456 5456 5455 5453 5451 5450 5449 5447 5446 5443 5440 5438 5435 5432 5429 5426 5424
5461 5457 5455 5452 5450 5447 5444 5443 5440 5439 5438 5439 5440 5441 5442 5443 5443 5443 5443 5444 5445 5446 5447 5446 5446 5446 5446 5446 5445 5444 5443 5441 5439 5438 5436 5433 5431 5428 5425 5423 5421 5418 5416
5452 5448 5444 5442 5440 5435 5431 5429 5427 5425 5425 5426 5426 5427 5428 5429 5430 5431 5431 5432 5434 5436 5436 5437 5437 5437 5436 5436 5435 5435 5434 5432 5430 5427 5425 5422 5420 5418 5417 5415 5413 5412 5411
5442 5437 5434 5431 5428 5424 5419 5416 5414 5413 5413 5412 5413 5413 5414 5415 5417 5418 5420 5421 5424 5425 5427 5428 5429 5428 5429 5430 5429 5428 5426 5425 5423 5419 5415 5414 5412 5411 5409 5408 5407 5405 5403
5433 5428 5423 5419 5416 5412 5409 5405 5402 5400 5399 5399 5399 5399 5399 5400 5402 5404 5406 5408 5410 5412 5414 5416 5417 5419 5420 5420 5420 5419 5418 5416 5414 5410 5409 5408 5407 5406 5405 5403 5402 5399 5398